Location: Bush Observatory
(40.2653°N, 94.3194°W)
Time: 18:09:01
(UTC-05:00)

Iridium 13 - Visible Passes

Search period start: 02 July 2015 00:00
Search period end: 12 July 2015 00:00
Orbit: 776 x 779 km, 86.4° (Epoch: 02 July)

Date Brightness Start Highest point End Pass type
(mag) Time Alt. Az. Time Alt. Az. Time Alt. Az.
02 Jul 5.7 01:47:44 58° ESE 01:48:00 59° E 01:53:08 10° N visible
02 Jul 7.4 03:28:13 15° W 03:29:16 15° WNW 03:32:12 10° NW visible
03 Jul 6.6 01:14:21 32° E 01:14:36 32° E 01:19:13 10° NNE visible
03 Jul 6.7 02:54:49 27° W 02:55:22 28° WNW 02:59:46 10° NNW visible
04 Jul 7.4 00:40:57 17° E 00:41:17 18° E 00:44:46 10° NE visible
04 Jul 5.8 02:21:26 51° W 02:21:39 51° W 02:26:43 10° N visible
05 Jul 5.4 01:48:01 86° ESE 01:48:04 86° E 01:53:19 10° N visible
05 Jul 7.8 03:28:40 10° W 03:29:41 10° WNW 03:30:20 10° WNW visible
06 Jul 6.1 01:14:37 46° E 01:14:37 46° E 01:19:36 10° NNE visible
06 Jul 7.2 02:55:05 19° W 02:55:40 20° WNW 02:59:20 10° NNW visible
07 Jul 7.0 00:41:12 25° E 00:41:14 25° E 00:45:31 10° NNE visible
07 Jul 6.4 02:21:41 35° W 02:21:50 35° W 02:26:35 10° NNW visible
08 Jul 7.6 00:07:47 14° E 00:07:58 14° E 00:10:39 10° NE visible
08 Jul 5.6 01:48:16 66° W 01:48:16 66° W 01:53:23 10° N visible
09 Jul 5.6 01:14:50 67° ENE 01:14:50 67° ENE 01:19:51 10° N visible
09 Jul 7.6 02:55:18 13° W 02:56:02 14° WNW 02:58:27 10° NW visible
10 Jul 6.4 00:41:24 36° E 00:41:24 36° E 00:46:00 10° NNE visible
10 Jul 7.0 02:21:52 25° W 02:22:05 25° WNW 02:26:17 10° NNW visible
11 Jul 7.2 00:07:58 20° E 00:07:58 20° E 00:11:41 10° NE visible
11 Jul 6.1 01:48:26 45° W 01:48:26 45° W 01:53:19 10° N visible
11 Jul 7.8 23:34:31 10° E 23:34:39 10° ENE 23:35:44 10° ENE visible
